Flag for Germany Weather past 2 weeks in Aachen, North Rhine-Westphalia, Germany

Now
64 °F

Overcast.


Feels Like: 64 °F
Forecast: 49 / 62 °F
Wind: 7 mph from Southwest

Location: Maastricht Airport Zuid Limburg

Current Time: Aug 22, 2014 at 4:54:35 PM

Latest Report: Aug 22, 2014 at 4:00 PM


Visibility: 22 mi

Pressure: 29.87 "Hg

Humidity: 54%

Dew point: 47 °F

Location of AachenLocation

Historic Weather in Aachen — Graph

°F

Aachen temperature yesterday

Maximum temperature yesterday: 65 °F (at 3:00 PM)
Minimum temperature yesterday: 47 °F (at 3:00 AM)
Average temperature yesterday: 55 °F

Past Weeks' High & Low Weather Summary

 TemperatureHumidityPressure
High76 °F (Aug 7, 3:00 PM)98% (Aug 9, 12:00 AM)30.13 "Hg (Aug 9, 12:00 AM)
Low46 °F (Aug 20, 5:00 AM)50% (Aug 21, 3:00 PM)29.55 "Hg (Aug 10, 6:00 PM)
Average60 °F80%29.88 "Hg
* Reported Aug 7 3:00 PM — Aug 22 3:00 PM, Aachen, Weather by CustomWeather, © 2014

Note: Actual official high and low records may vary slightly from our data, if they occured in-between our weather recording intervals... More about our weather records

Advertising

Aachen weather history for previous 24 hours

 ConditionsComfort  
Time TempWeatherWind HumidityBarometerVisibility
3:00 PM
Aug 22
64 °FOvercast.7 mph56%29.87 "Hg17 mi
2:00 PM64 °FOvercast.7 mph55%29.88 "Hg19 mi
1:00 PM63 °FOvercast.6 mph63%29.89 "Hg19 mi
12:00 PM63 °FOvercast.8 mph62%29.89 "Hg19 mi
11:00 AM62 °FScattered clouds.7 mph64%29.90 "Hg22 mi
10:00 AM58 °FOvercast.5 mph72%29.90 "Hg19 mi
9:00 AM56 °FOvercast.5 mph75%29.90 "Hg19 mi
8:00 AM54 °FOvercast.5 mph78%29.90 "Hg22 mi
7:00 AM53 °FOvercast.5 mph80%29.91 "Hg28 mi
6:00 AM51 °FPassing clouds.3 mph84%29.92 "Hg25 mi
5:00 AM52 °FClear.3 mph83%29.93 "Hg28 mi
4:00 AM53 °FOvercast.3 mph85%29.94 "Hg22 mi
3:00 AM54 °FOvercast.3 mph84%29.95 "Hg22 mi
2:00 AM53 °FOvercast.3 mph84%29.96 "Hg19 mi
1:00 AM53 °FOvercast.2 mph87%29.98 "Hg17 mi
12:00 AM53 °FOvercast.3 mph87%29.98 "Hg22 mi
11:00 PM
Aug 21
53 °FPassing clouds.2 mph85%29.98 "Hg22 mi
10:00 PM54 °FOvercast.2 mph86%29.98 "Hg19 mi
9:00 PM58 °FLight freezing rain. Overcast.5 mph70%29.99 "Hg17 mi
8:00 PM59 °FOvercast.5 mph64%29.98 "Hg28 mi
7:00 PM60 °FOvercast.5 mph58%29.98 "Hg25 mi
6:00 PM63 °FOvercast.5 mph54%29.99 "Hg22 mi
5:00 PM64 °FPartly sunny.6 mph50%29.99 "Hg22 mi
4:00 PM63 °FScattered clouds.5 mph53%30.01 "Hg17 mi
Weather by CustomWeather, © 2014

See weather overviewHow to use our weather pages